• în Republica Moldova
  • Lista ţărilor
  • Pe 7 zile
  • Temperatura apei
  • Hartă satelitară
  • Meteo pe hartă
  • Widget-uri
  • user-avatar
    Intrare

    Meteo pe oră la Nachiczewan

    Astăzi, 28 Mai, Duminică

    Timp Temperatura Precipitaţii Vânt Presiune Umiditate
    00:00 +20°C° 0 mm 1 m/s 685 mmHg 50%
    01:00 +20°C° 0 mm 1 m/s 685 mmHg 50%
    02:00 +19°C° 0 mm 1 m/s 685 mmHg 50%
    03:00 +18°C° 0 mm 1 m/s 685 mmHg 53%
    04:00 +19°C° 0 mm 1 m/s 686 mmHg 51%
    05:00 +20°C° 0 mm 1 m/s 686 mmHg 49%
    06:00 +20°C° 0 mm 1 m/s 686 mmHg 48%
    07:00 +22°C° 0 mm 1 m/s 686 mmHg 41%
    08:00 +24°C° 0 mm 2 m/s 686 mmHg 35%
    09:00 +26°C° 0 mm 2 m/s 686 mmHg 30%
    10:00 +27°C° 0 mm 2 m/s 686 mmHg 27%
    11:00 +28°C° 0 mm 3 m/s 686 mmHg 23%
    12:00 +29°C° 0 mm 3 m/s 686 mmHg 20%
    13:00 +30°C° 0 mm 4 m/s 686 mmHg 19%
    14:00 +30°C° 0 mm 4 m/s 686 mmHg 17%
    15:00 +32°C° 0 mm 5 m/s 686 mmHg 16%
    16:00 +30°C° 0 mm 5 m/s 686 mmHg 18%
    17:00 +29°C° 0 mm 4 m/s 686 mmHg 20%
    18:00 +28°C° 0 mm 4 m/s 686 mmHg 22%
    19:00 +26°C° 0 mm 4 m/s 687 mmHg 26%
    20:00 +24°C° 0 mm 3 m/s 687 mmHg 29%
    21:00 +21°C° 0 mm 2 m/s 687 mmHg 33%
    22:00 +21°C° 0 mm 2 m/s 688 mmHg 34%
    23:00 +20°C° 0 mm 2 m/s 688 mmHg 36%

    Mâine, 29 Mai, Luni

    Timp Temperatura Precipitaţii Vânt Presiune Umiditate
    00:00 +19°C° 0 mm 2 m/s 688 mmHg 37%
    01:00 +20°C° 0 mm 1 m/s 688 mmHg 39%
    02:00 +19°C° 0 mm 1 m/s 688 mmHg 41%
    03:00 +19°C° 0 mm 1 m/s 688 mmHg 42%
    04:00 +19°C° 0 mm 1 m/s 688 mmHg 42%
    05:00 +20°C° 0 mm 1 m/s 689 mmHg 42%
    06:00 +21°C° 0 mm 1 m/s 689 mmHg 41%
    07:00 +23°C° 0 mm 1 m/s 689 mmHg 36%
    08:00 +25°C° 0 mm 1 m/s 690 mmHg 31%
    09:00 +26°C° 0 mm 1 m/s 690 mmHg 26%
    10:00 +28°C° 0 mm 1 m/s 690 mmHg 24%
    11:00 +29°C° 0 mm 2 m/s 690 mmHg 22%
    12:00 +30°C° 0 mm 2 m/s 690 mmHg 20%
    13:00 +31°C° 0 mm 3 m/s 689 mmHg 19%
    14:00 +31°C° 0 mm 3 m/s 689 mmHg 17%
    15:00 +33°C° 0 mm 3 m/s 689 mmHg 16%
    16:00 +31°C° 0 mm 3 m/s 689 mmHg 18%
    17:00 +31°C° 0 mm 3 m/s 689 mmHg 20%
    18:00 +30°C° 0 mm 3 m/s 688 mmHg 22%
    19:00 +28°C° 0 mm 3 m/s 688 mmHg 28%
    20:00 +26°C° 0 mm 3 m/s 688 mmHg 34%
    21:00 +24°C° 0 mm 3 m/s 688 mmHg 40%
    22:00 +23°C° 0 mm 2 m/s 688 mmHg 43%
    23:00 +21°C° 0 mm 2 m/s 688 mmHg 47%

    Poimâine, 30 Mai, Marţi

    Timp Temperatura Precipitaţii Vânt Presiune Umiditate
    00:00 +20°C° 0 mm 2 m/s 688 mmHg 50%
    01:00 +20°C° 0 mm 2 m/s 688 mmHg 51%
    02:00 +19°C° 0 mm 2 m/s 688 mmHg 52%
    03:00 +20°C° 0 mm 1 m/s 688 mmHg 53%
    04:00 +21°C° 0 mm 1 m/s 688 mmHg 51%
    05:00 +21°C° 0 mm 1 m/s 688 mmHg 48%
    06:00 +22°C° 0 mm 1 m/s 689 mmHg 46%
    07:00 +24°C° 0 mm 1 m/s 689 mmHg 39%
    08:00 +26°C° 0 mm 1 m/s 689 mmHg 33%
    09:00 +28°C° 0 mm 1 m/s 689 mmHg 26%
    10:00 +30°C° 0 mm 1 m/s 689 mmHg 23%
    11:00 +31°C° 0 mm 1 m/s 689 mmHg 20%
    12:00 +33°C° 0 mm 1 m/s 689 mmHg 16%
    13:00 +34°C° 0 mm 2 m/s 689 mmHg 15%
    14:00 +34°C° 0 mm 3 m/s 688 mmHg 14%
    15:00 +35°C° 0 mm 3 m/s 688 mmHg 13%
    16:00 +34°C° 0 mm 3 m/s 688 mmHg 14%
    17:00 +33°C° 0 mm 3 m/s 688 mmHg 16%
    18:00 +31°C° 0 mm 3 m/s 688 mmHg 17%
    19:00 +29°C° 0 mm 3 m/s 688 mmHg 20%
    20:00 +27°C° 0 mm 2 m/s 688 mmHg 23%
    21:00 +24°C° 0 mm 2 m/s 688 mmHg 26%
    22:00 +24°C° 0 mm 2 m/s 688 mmHg 26%
    23:00 +23°C° 0 mm 2 m/s 688 mmHg 26%

    31 Mai, Miercuri

    Timp Temperatura Precipitaţii Vânt Presiune Umiditate
    00:00 +22°C° 0 mm 1 m/s 688 mmHg 26%
    01:00 +22°C° 0 mm 1 m/s 687 mmHg 27%
    02:00 +21°C° 0 mm 1 m/s 687 mmHg 29%
    03:00 +21°C° 0 mm 1 m/s 687 mmHg 30%
    04:00 +22°C° 0 mm 1 m/s 687 mmHg 31%
    05:00 +22°C° 0 mm 1 m/s 687 mmHg 32%
    06:00 +23°C° 0 mm 1 m/s 688 mmHg 33%
    07:00 +25°C° 0 mm 1 m/s 688 mmHg 29%
    08:00 +27°C° 0 mm 1 m/s 688 mmHg 25%
    09:00 +29°C° 0 mm 1 m/s 688 mmHg 21%
    10:00 +30°C° 0 mm 1 m/s 687 mmHg 19%
    11:00 +31°C° 0 mm 2 m/s 687 mmHg 18%
    12:00 +32°C° 0 mm 2 m/s 687 mmHg 16%
    13:00 +32°C° 0 mm 2 m/s 686 mmHg 16%
    14:00 +32°C° 0 mm 2 m/s 685 mmHg 16%
    15:00 +34°C° 0 mm 2 m/s 685 mmHg 16%
    16:00 +32°C° 0,1 mm 2 m/s 685 mmHg 18%
    17:00 +31°C° 0,1 mm 2 m/s 684 mmHg 21%
    18:00 +30°C° 0,1 mm 2 m/s 684 mmHg 23%
    19:00 +28°C° 0,1 mm 2 m/s 684 mmHg 30%
    20:00 +26°C° 0,1 mm 2 m/s 684 mmHg 36%
    21:00 +24°C° 0,1 mm 3 m/s 684 mmHg 43%
    22:00 +23°C° 0 mm 2 m/s 684 mmHg 45%
    23:00 +21°C° 0 mm 2 m/s 684 mmHg 47%

    1 Iunie, Joi

    Timp Temperatura Precipitaţii Vânt Presiune Umiditate
    00:00 +21°C° 0 mm 1 m/s 684 mmHg 48%
    01:00 +21°C° 0,1 mm 1 m/s 684 mmHg 48%
    02:00 +20°C° 0,1 mm 1 m/s 684 mmHg 49%
    03:00 +19°C° 0,1 mm 1 m/s 684 mmHg 49%
    04:00 +20°C° 0 mm 1 m/s 684 mmHg 46%
    05:00 +21°C° 0 mm 1 m/s 684 mmHg 44%
    06:00 +21°C° 0 mm 1 m/s 685 mmHg 41%
    07:00 +23°C° 0 mm 1 m/s 685 mmHg 35%
    08:00 +25°C° 0 mm 1 m/s 685 mmHg 29%
    09:00 +26°C° 0 mm 1 m/s 685 mmHg 23%
    10:00 +27°C° 0 mm 1 m/s 684 mmHg 21%
    11:00 +28°C° 0 mm 1 m/s 684 mmHg 19%
    12:00 +29°C° 0 mm 2 m/s 684 mmHg 17%
    13:00 +30°C° 0 mm 2 m/s 684 mmHg 16%
    14:00 +30°C° 0 mm 2 m/s 683 mmHg 15%
    15:00 +31°C° 0 mm 2 m/s 683 mmHg 14%
    16:00 +30°C° 0 mm 2 m/s 683 mmHg 16%
    17:00 +29°C° 0 mm 2 m/s 683 mmHg 17%
    18:00 +29°C° 0 mm 2 m/s 683 mmHg 19%
    19:00 +27°C° 0,1 mm 2 m/s 683 mmHg 23%
    20:00 +25°C° 0,1 mm 2 m/s 684 mmHg 27%
    21:00 +22°C° 0,1 mm 3 m/s 684 mmHg 31%
    22:00 +21°C° 0 mm 2 m/s 684 mmHg 33%
    23:00 +20°C° 0 mm 2 m/s 684 mmHg 36%

    2 Iunie, Vineri

    Timp Temperatura Precipitaţii Vânt Presiune Umiditate
    00:00 +19°C° 0 mm 2 m/s 684 mmHg 39%
    01:00 +19°C° 0 mm 2 m/s 684 mmHg 40%
    02:00 +19°C° 0 mm 1 m/s 684 mmHg 42%
    03:00 +18°C° 0 mm 1 m/s 683 mmHg 43%
    04:00 +19°C° 0 mm 1 m/s 684 mmHg 42%
    05:00 +20°C° 0 mm 1 m/s 684 mmHg 40%
    06:00 +21°C° 0 mm 1 m/s 685 mmHg 38%
    07:00 +22°C° 0 mm 1 m/s 685 mmHg 33%
    08:00 +24°C° 0 mm 1 m/s 685 mmHg 29%
    09:00 +25°C° 0 mm 1 m/s 685 mmHg 24%
    10:00 +27°C° 0 mm 1 m/s 685 mmHg 22%
    11:00 +28°C° 0 mm 1 m/s 684 mmHg 20%
    12:00 +29°C° 0 mm 1 m/s 684 mmHg 18%
    13:00 +29°C° 0 mm 1 m/s 684 mmHg 17%
    14:00 +30°C° 0 mm 1 m/s 684 mmHg 16%
    15:00 +30°C° 0 mm 2 m/s 683 mmHg 15%
    16:00 +30°C° 0,1 mm 2 m/s 683 mmHg 17%
    17:00 +29°C° 0,1 mm 2 m/s 684 mmHg 18%
    18:00 +28°C° 0,1 mm 2 m/s 684 mmHg 20%
    19:00 +26°C° 0,2 mm 2 m/s 684 mmHg 26%
    20:00 +24°C° 0,2 mm 2 m/s 684 mmHg 33%
    21:00 +21°C° 0,2 mm 2 m/s 684 mmHg 39%
    22:00 +21°C° 0 mm 2 m/s 684 mmHg 43%
    23:00 +20°C° 0 mm 2 m/s 684 mmHg 46%
    Arată mai mult